Rakoskert, Hungary

5:43 AM CET on February 22, 2017 (GMT +0100)
Ferihegy

Weather History for LHBP - September, 2013

Change the Weather History Date:

Monday, September 30, 2013

  Actual Average Record
Temperature  
Mean Temperature 55 °F -  
Max Temperature 60 °F 59 °F 78 °F (2011)
Min Temperature 50 °F 40 °F 37 °F (2010)
Degree Days  
Heating Degree Days 10    
Growing Degree Days 5 (Base 50)    
Moisture  
Dew Point 38 °F    
Average Humidity 54    
Maximum Humidity 62    
Minimum Humidity 45    
Precipitation  
Precipitation 0.00 in - - ()
Sea Level Pressure  
Sea Level Pressure 29.84 in    
Wind  
Wind Speed 11 mph ()    
Max Wind Speed 22 mph    
Max Gust Speed -    
Visibility 6.2 miles    
Events      
Averages and records for this station are not official NWS values.
T = Trace of Precipitation, MM = Missing Value Source: Averaged Metar Reports

Daily Weather History Graph

Daily Weather History Graph

Search for Another Location

Airport or City:

Trip Planner

Search our weather history database for the weather conditions in past years. The results will help you decide how hot, cold, wet, or windy it might be!

Date:

Astronomy

Sep. 30, 2013 Rise Set
Actual Time 6:40 AM CEST 6:24 PM CEST
Civil Twilight 6:09 AM CEST 6:54 PM CEST
Nautical Twilight 5:34 AM CEST 7:30 PM CEST
Astronomical Twilight 4:57 AM CEST 8:06 PM CEST
Moon 1:43 AM CEST (9/30) 3:59 PM CEST (9/30)
Length of Visible Light 12h 45m
Length of Day
11h 44m
Waning Crescent, 21% of the Moon is Illuminated
Sep 30
Waning Crescent
Oct 5
New
Oct 12
First Quarter
Oct 19
Full
Oct 27
Last Quarter

Hourly Weather History & Observations

Time (CEST) Temp. Dew Point Humidity Pressure Visibility Wind Dir Wind Speed Gust Speed Precip Events Conditions
12:00 AM 53.6 °F 35.6 °F 51% 29.92 in - ENE 13.8 mph - N/A   Clear
12:30 AM 53.6 °F 35.6 °F 51% 29.92 in - ENE 12.7 mph - N/A   Clear
1:00 AM 51.8 °F 35.6 °F 54% 29.89 in - ENE 13.8 mph - N/A   Clear
1:30 AM 51.8 °F 35.6 °F 54% 29.89 in - NE 10.4 mph - N/A   Clear
2:00 AM 51.8 °F 35.6 °F 54% 29.89 in - NE 10.4 mph - N/A   Clear
2:30 AM 51.8 °F 35.6 °F 54% 29.89 in - NE 9.2 mph - N/A   Clear
3:00 AM 51.8 °F 35.6 °F 54% 29.89 in - NE 8.1 mph - N/A   Clear
3:30 AM 51.8 °F 35.6 °F 54% 29.89 in - NE 6.9 mph - N/A   Clear
4:00 AM 50.0 °F 35.6 °F 58% 29.89 in - NNE 4.6 mph - N/A   Clear
4:30 AM 50.0 °F 35.6 °F 58% 29.86 in - Variable 3.5 mph - N/A   Clear
5:00 AM 50.0 °F 35.6 °F 58% 29.86 in - NE 5.8 mph - N/A   Clear
5:30 AM 50.0 °F 35.6 °F 58% 29.86 in - NE 6.9 mph - N/A   Clear
6:00 AM 50.0 °F 35.6 °F 58% 29.86 in - NE 10.4 mph - N/A   Clear
6:30 AM 50.0 °F 37.4 °F 62% 29.86 in - NE 12.7 mph - N/A   Clear
7:00 AM 50.0 °F 37.4 °F 62% 29.86 in - NE 11.5 mph - N/A   Clear
7:30 AM 50.0 °F 37.4 °F 62% 29.86 in - NE 11.5 mph - N/A   Clear
8:00 AM 50.0 °F 37.4 °F 62% 29.83 in - NE 13.8 mph - N/A   Clear
8:30 AM 50.0 °F 37.4 °F 62% 29.86 in - NE 15.0 mph - N/A   Clear
9:00 AM 50.0 °F 37.4 °F 62% 29.86 in - NE 16.1 mph - N/A   Clear
9:30 AM 51.8 °F 37.4 °F 58% 29.86 in - ENE 13.8 mph - N/A   Clear
10:00 AM 53.6 °F 39.2 °F 58% 29.86 in - ENE 16.1 mph - N/A   Clear
10:30 AM 51.8 °F 39.2 °F 62% 29.86 in 6.2 mi ENE 17.3 mph - N/A   Mostly Cloudy
11:00 AM 53.6 °F 39.2 °F 58% 29.86 in 6.2 mi ENE 16.1 mph - N/A   Mostly Cloudy
11:30 AM 53.6 °F 39.2 °F 58% 29.86 in - East 16.1 mph - N/A   Clear
12:00 PM 57.2 °F 39.2 °F 51% 29.86 in 6.2 mi East 15.0 mph - N/A   Mostly Cloudy
12:30 PM 57.2 °F 39.2 °F 51% 29.83 in 6.2 mi East 16.1 mph - N/A   Mostly Cloudy
1:00 PM 59.0 °F 39.2 °F 48% 29.83 in 6.2 mi East 16.1 mph - N/A   Mostly Cloudy
1:30 PM 59.0 °F 39.2 °F 48% 29.83 in 6.2 mi ENE 16.1 mph - N/A   Mostly Cloudy
2:00 PM 59.0 °F 41.0 °F 51% 29.83 in - East 15.0 mph - N/A   Clear
2:30 PM 60.8 °F 41.0 °F 48% 29.80 in 6.2 mi East 17.3 mph - N/A   Mostly Cloudy
3:00 PM 59.0 °F 39.2 °F 48% 29.80 in 6.2 mi East 21.9 mph - N/A   Mostly Cloudy
3:30 PM 59.0 °F 41.0 °F 51% 29.80 in 6.2 mi East 15.0 mph - N/A   Mostly Cloudy
4:00 PM 59.0 °F 41.0 °F 51% 29.80 in 6.2 mi East 17.3 mph - N/A   Mostly Cloudy
4:30 PM 59.0 °F 41.0 °F 51% 29.80 in 6.2 mi ENE 15.0 mph - N/A   Mostly Cloudy
5:00 PM 59.0 °F 39.2 °F 48% 29.80 in 6.2 mi ENE 13.8 mph - N/A   Mostly Cloudy
5:30 PM 59.0 °F 39.2 °F 48% 29.80 in 6.2 mi ENE 11.5 mph - N/A   Mostly Cloudy
6:00 PM 59.0 °F 37.4 °F 45% 29.80 in - ENE 12.7 mph - N/A   Clear
6:30 PM 59.0 °F 37.4 °F 45% 29.80 in - ENE 9.2 mph - N/A   Clear
7:00 PM 57.2 °F 37.4 °F 48% 29.80 in - ENE 12.7 mph - N/A   Clear
7:30 PM 57.2 °F 37.4 °F 48% 29.80 in - NE 8.1 mph - N/A   Clear
8:00 PM 55.4 °F 37.4 °F 51% 29.80 in - NNE 8.1 mph - N/A   Clear
8:30 PM 55.4 °F 37.4 °F 51% 29.80 in - North 9.2 mph - N/A   Clear
9:00 PM 55.4 °F 37.4 °F 51% 29.80 in 6.2 mi North 10.4 mph - N/A   Mostly Cloudy
9:30 PM 53.6 °F 37.4 °F 54% 29.80 in - North 11.5 mph - N/A   Clear
10:00 PM 53.6 °F 39.2 °F 58% 29.80 in - North 10.4 mph - N/A   Clear
10:30 PM 53.6 °F 39.2 °F 58% 29.80 in - NNE 10.4 mph - N/A   Clear
11:00 PM 53.6 °F 39.2 °F 58% 29.80 in - NNE 10.4 mph - N/A   Clear
11:30 PM 53.6 °F 39.2 °F 58% 29.80 in - NNE 8.1 mph - N/A   Clear